2016-04-12 00:01:06 r, 18.40m,0000000004Hz,0000119215c,0000000.259s, 012.5C,00002195
2016-04-12 00:11:08 r, 18.41m,0000000003Hz,0000120052c,0000000.261s, 012.5C,00002195
2016-04-12 00:21:07 r, 18.41m,0000000004Hz,0000120071c,0000000.261s, 012.5C,00002195
2016-04-12 00:31:07 r, 18.41m,0000000004Hz,0000120069c,0000000.261s, 012.5C,00002195
2016-04-12 00:41:07 r, 18.41m,0000000004Hz,0000119990c,0000000.260s, 012.2C,00002195
2016-04-12 00:51:07 r, 18.41m,0000000004Hz,0000119901c,0000000.260s, 012.2C,00002195
2016-04-12 01:01:06 r, 18.39m,0000000004Hz,0000118026c,0000000.256s, 012.2C,00002195
2016-04-12 01:11:06 r, 18.05m,0000000005Hz,0000086548c,0000000.188s, 012.2C,00002195
2016-04-12 01:21:08 r, 17.91m,0000000006Hz,0000076744c,0000000.167s, 012.2C,00002195
2016-04-12 01:31:06 r, 17.91m,0000000006Hz,0000076433c,0000000.166s, 012.2C,00002195
2016-04-12 01:41:06 r, 17.88m,0000000007Hz,0000073845c,0000000.160s, 012.5C,00002195
2016-04-12 01:51:07 r, 18.23m,0000000004Hz,0000101870c,0000000.221s, 012.5C,00002195
2016-04-12 02:01:07 r, 18.26m,0000000004Hz,0000105376c,0000000.229s, 012.2C,00002195
2016-04-12 02:11:06 r, 18.37m,0000000004Hz,0000116132c,0000000.252s, 012.2C,00002195
2016-04-12 02:21:09 r, 18.33m,0000000004Hz,0000112330c,0000000.244s, 012.2C,00002195
2016-04-12 02:31:06 r, 18.38m,0000000003Hz,0000117248c,0000000.254s, 012.2C,00002195
2016-04-12 02:41:06 r, 18.44m,0000000004Hz,0000123736c,0000000.269s, 012.2C,00002195
2016-04-12 02:51:09 r, 18.46m,0000000004Hz,0000126699c,0000000.275s, 011.9C,00002195
2016-04-12 03:01:06 r, 18.46m,0000000004Hz,0000125984c,0000000.273s, 011.9C,00002195
2016-04-12 03:11:07 r, 18.46m,0000000004Hz,0000125826c,0000000.273s, 011.9C,00002195
2016-04-12 03:21:07 r, 18.42m,0000000004Hz,0000121818c,0000000.264s, 011.9C,00002195
2016-04-12 03:31:07 r, 18.44m,0000000004Hz,0000123944c,0000000.269s, 011.9C,00002195
2016-04-12 03:41:07 r, 18.45m,0000000004Hz,0000124735c,0000000.271s, 011.9C,00002195
2016-04-12 03:51:07 r, 18.43m,0000000004Hz,0000121945c,0000000.265s, 011.6C,00002195
2016-04-12 04:01:07 r, 18.40m,0000000004Hz,0000119792c,0000000.260s, 011.6C,00002195
2016-04-12 04:11:07 r, 18.37m,0000000004Hz,0000116439c,0000000.253s, 011.6C,00002195
2016-04-12 04:21:07 r, 18.41m,0000000004Hz,0000120260c,0000000.261s, 011.6C,00002195
2016-04-12 04:31:07 r, 18.31m,0000000004Hz,0000110489c,0000000.240s, 011.6C,00002195
2016-04-12 04:41:07 r, 18.39m,0000000004Hz,0000118216c,0000000.257s, 011.6C,00002195
2016-04-12 04:51:07 r, 18.32m,0000000004Hz,0000110337c,0000000.239s, 011.2C,00002195
2016-04-12 05:01:07 r, 18.41m,0000000004Hz,0000120259c,0000000.261s, 011.2C,00002195
2016-04-12 05:11:07 r, 18.41m,0000000004Hz,0000119679c,0000000.260s, 011.2C,00002195
2016-04-12 05:21:07 r, 18.30m,0000000004Hz,0000108708c,0000000.236s, 011.2C,00002195
2016-04-12 05:31:07 r, 18.03m,0000000005Hz,0000085425c,0000000.185s, 011.2C,00002195
2016-04-12 05:41:07 r, 17.42m,0000000009Hz,0000048357c,0000000.105s, 011.2C,00002195
2016-04-12 05:51:08 r, 16.36m,0000000025Hz,0000018237c,0000000.040s, 011.2C,00002195
2016-04-12 06:01:07 r, 14.60m,0000000126Hz,0000003587c,0000000.008s, 011.2C,00002195
2016-04-12 06:11:07 r, 12.56m,0000000845Hz,0000000000c,0000000.000s, 011.2C,00002195
2016-04-12 06:21:07 r, 10.63m,0000005007Hz,0000000000c,0000000.000s, 011.2C,00002195
2016-04-12 06:31:09 r, 08.98m,0000022746Hz,0000000000c,0000000.000s, 011.2C,00002195
2016-04-12 06:41:07 r, 07.78m,0000068884Hz,0000000000c,0000000.000s, 011.2C,00002195
2016-04-12 06:51:07 r, 06.94m,0000148649Hz,0000000000c,0000000.000s, 011.6C,00002195
2016-04-12 07:01:07 r, 06.38m,0000249245Hz,0000000000c,0000000.000s, 011.6C,00002195
2016-04-12 07:11:07 r, 00.00m,0000468144Hz,0000000000c,0000000.000s, 011.6C,00002195
2016-04-12 07:21:07 r, 00.00m,0000562141Hz,0000000000c,0000000.000s, 011.9C,00002195
2016-04-12 07:31:07 r, 00.00m,0000562295Hz,0000000000c,0000000.000s, 012.2C,00002195
2016-04-12 07:41:07 r, 00.00m,0000562339Hz,0000000000c,0000000.000s, 012.8C,00002195
2016-04-12 07:51:08 r, 00.00m,0000562344Hz,0000000000c,0000000.000s, 012.8C,00002195
2016-04-12 08:01:07 r, 00.00m,0000562414Hz,0000000000c,0000000.000s, 013.5C,00002195
2016-04-12 08:11:07 r, 00.00m,0000562499Hz,0000000000c,0000000.000s, 014.1C,00002195
2016-04-12 08:21:07 r, 00.00m,0000562632Hz,0000000000c,0000000.000s, 014.5C,00002195
2016-04-12 08:31:09 r, 00.00m,0000562745Hz,0000000000c,0000000.000s, 015.1C,00002195
2016-04-12 08:41:07 r, 00.00m,0000562848Hz,0000000000c,0000000.000s, 016.1C,00002195
2016-04-12 08:51:08 r, 00.00m,0000562919Hz,0000000000c,0000000.000s, 016.7C,00002195
2016-04-12 09:01:07 r, 00.00m,0000563099Hz,0000000000c,0000000.000s, 017.4C,00002195
2016-04-12 09:11:07 r, 00.00m,0000563103Hz,0000000000c,0000000.000s, 018.3C,00002195
2016-04-12 09:21:07 r, 00.00m,0000563217Hz,0000000000c,0000000.000s, 019.6C,00002195
2016-04-12 09:31:07 r, 00.00m,0000563425Hz,0000000000c,0000000.000s, 020.3C,00002195
2016-04-12 09:41:07 r, 00.00m,0000563474Hz,0000000000c,0000000.000s, 021.2C,00002195
2016-04-12 09:51:07 r, 00.00m,0000563566Hz,0000000000c,0000000.000s, 021.9C,00002195
2016-04-12 10:01:07 r, 00.00m,0000563421Hz,0000000000c,0000000.000s, 021.9C,00002195
2016-04-12 10:11:07 r, 00.00m,0000563757Hz,0000000000c,0000000.000s, 023.2C,00002195
2016-04-12 10:21:07 r, 00.00m,0000563970Hz,0000000000c,0000000.000s, 024.8C,00002195
2016-04-12 10:31:09 r, 00.00m,0000563911Hz,0000000000c,0000000.000s, 025.1C,00002195
2016-04-12 10:41:07 r, 00.00m,0000563976Hz,0000000000c,0000000.000s, 025.1C,00002195
2016-04-12 10:51:08 r, 00.00m,0000564214Hz,0000000000c,0000000.000s, 026.7C,00002195
2016-04-12 11:01:07 r, 00.00m,0000564417Hz,0000000000c,0000000.000s, 028.0C,00002195
2016-04-12 11:11:07 r, 00.00m,0000564467Hz,0000000000c,0000000.000s, 028.6C,00002195
2016-04-12 11:21:07 r, 00.00m,0000564508Hz,0000000000c,0000000.000s, 029.0C,00002195
2016-04-12 11:31:07 r, 00.00m,0000564641Hz,0000000000c,0000000.000s, 029.6C,00002195
2016-04-12 11:41:07 r, 00.00m,0000564637Hz,0000000000c,0000000.000s, 030.2C,00002195
2016-04-12 11:51:07 r, 00.00m,0000564695Hz,0000000000c,0000000.000s, 030.9C,00002195
2016-04-12 12:01:07 r, 00.00m,0000564771Hz,0000000000c,0000000.000s, 031.5C,00002195
2016-04-12 12:11:07 r, 00.00m,0000564793Hz,0000000000c,0000000.000s, 031.9C,00002195
2016-04-12 12:21:08 r, 00.00m,0000564820Hz,0000000000c,0000000.000s, 032.2C,00002195
2016-04-12 12:31:07 r, 00.00m,0000564760Hz,0000000000c,0000000.000s, 032.5C,00002195
2016-04-12 12:41:07 r, 00.00m,0000564943Hz,0000000000c,0000000.000s, 032.8C,00002195
2016-04-12 12:51:07 r, 00.00m,0000564862Hz,0000000000c,0000000.000s, 033.1C,00002195
2016-04-12 13:01:08 r, 00.00m,0000564901Hz,0000000000c,0000000.000s, 033.5C,00002195
2016-04-12 13:11:07 r, 00.00m,0000564929Hz,0000000000c,0000000.000s, 033.8C,00002195
2016-04-12 13:21:07 r, 00.00m,0000565014Hz,0000000000c,0000000.000s, 034.4C,00002195
2016-04-12 13:31:07 r, 00.00m,0000565062Hz,0000000000c,0000000.000s, 034.8C,00002195
2016-04-12 13:41:07 r, 00.00m,0000565013Hz,0000000000c,0000000.000s, 034.4C,00002195
2016-04-12 13:51:09 r, 00.00m,0000564854Hz,0000000000c,0000000.000s, 034.1C,00002195
2016-04-12 14:01:07 r, 00.00m,0000564860Hz,0000000000c,0000000.000s, 034.1C,00002195
2016-04-12 14:11:07 r, 00.00m,0000564770Hz,0000000000c,0000000.000s, 033.5C,00002195
2016-04-12 14:21:07 r, 00.00m,0000564558Hz,0000000000c,0000000.000s, 032.5C,00002195
2016-04-12 14:31:08 r, 00.00m,0000564527Hz,0000000000c,0000000.000s, 031.5C,00002195
2016-04-12 14:41:07 r, 00.00m,0000564822Hz,0000000000c,0000000.000s, 033.1C,00002195
2016-04-12 14:51:07 r, 00.00m,0000565083Hz,0000000000c,0000000.000s, 035.4C,00002195
2016-04-12 15:01:07 r, 00.00m,0000564962Hz,0000000000c,0000000.000s, 035.7C,00002195
2016-04-12 15:11:07 r, 00.00m,0000565007Hz,0000000000c,0000000.000s, 035.7C,00002195
2016-04-12 15:21:07 r, 00.00m,0000564870Hz,0000000000c,0000000.000s, 035.4C,00002195
2016-04-12 15:31:07 r, 00.00m,0000564864Hz,0000000000c,0000000.000s, 034.4C,00002195
2016-04-12 15:41:07 r, 00.00m,0000564922Hz,0000000000c,0000000.000s, 035.4C,00002195
2016-04-12 15:51:07 r, 00.00m,0000564945Hz,0000000000c,0000000.000s, 036.4C,00002195
2016-04-12 16:01:07 r, 00.00m,0000564988Hz,0000000000c,0000000.000s, 036.4C,00002195
2016-04-12 16:11:07 r, 00.00m,0000564964Hz,0000000000c,0000000.000s, 036.0C,00002195
2016-04-12 16:21:09 r, 00.00m,0000564951Hz,0000000000c,0000000.000s, 036.0C,00002195
2016-04-12 16:31:07 r, 00.00m,0000564893Hz,0000000000c,0000000.000s, 035.7C,00002195
2016-04-12 16:41:07 r, 00.00m,0000564748Hz,0000000000c,0000000.000s, 034.4C,00002195
2016-04-12 16:51:07 r, 00.00m,0000564701Hz,0000000000c,0000000.000s, 034.1C,00002195
2016-04-12 17:01:07 r, 00.00m,0000564695Hz,0000000000c,0000000.000s, 033.8C,00002195
2016-04-12 17:11:07 r, 00.00m,0000564685Hz,0000000000c,0000000.000s, 033.8C,00002195
2016-04-12 17:21:08 r, 00.00m,0000564606Hz,0000000000c,0000000.000s, 033.8C,00002195
2016-04-12 17:31:09 r, 00.00m,0000564654Hz,0000000000c,0000000.000s, 033.5C,00002195
2016-04-12 17:41:07 r, 00.00m,0000564513Hz,0000000000c,0000000.000s, 032.8C,00002195
2016-04-12 17:51:07 r, 00.00m,0000564315Hz,0000000000c,0000000.000s, 031.5C,00002195
2016-04-12 18:01:09 r, 00.00m,0000564146Hz,0000000000c,0000000.000s, 030.6C,00002195
2016-04-12 18:11:07 r, 00.00m,0000564133Hz,0000000000c,0000000.000s, 029.9C,00002195
2016-04-12 18:21:07 r, 00.00m,0000564043Hz,0000000000c,0000000.000s, 029.3C,00002195
2016-04-12 18:31:08 r, 00.00m,0000563975Hz,0000000000c,0000000.000s, 028.6C,00002195
2016-04-12 18:41:07 r, 00.00m,0000563855Hz,0000000000c,0000000.000s, 028.0C,00002195
2016-04-12 18:51:07 r, 00.00m,0000563914Hz,0000000000c,0000000.000s, 028.0C,00002195
2016-04-12 19:01:08 r, 00.00m,0000563893Hz,0000000000c,0000000.000s, 027.7C,00002195
2016-04-12 19:11:07 r, 00.00m,0000563786Hz,0000000000c,0000000.000s, 026.7C,00002195
2016-04-12 19:21:08 r, 00.00m,0000563711Hz,0000000000c,0000000.000s, 026.4C,00002195
2016-04-12 19:31:09 r, 00.00m,0000563646Hz,0000000000c,0000000.000s, 026.1C,00002195
2016-04-12 19:41:07 r, 00.00m,0000563577Hz,0000000000c,0000000.000s, 025.7C,00002195
2016-04-12 19:51:07 r, 00.00m,0000452887Hz,0000000000c,0000000.000s, 025.7C,00002195
2016-04-12 20:01:07 r, 06.22m,0000289030Hz,0000000000c,0000000.000s, 025.4C,00002195
2016-04-12 20:11:07 r, 06.94m,0000149123Hz,0000000000c,0000000.000s, 025.1C,00002195
2016-04-12 20:21:07 r, 07.92m,0000060198Hz,0000000000c,0000000.000s, 024.8C,00002195
2016-04-12 20:31:08 r, 09.39m,0000015627Hz,0000000000c,0000000.000s, 024.4C,00002195
2016-04-12 20:41:07 r, 11.00m,0000003551Hz,0000000000c,0000000.000s, 024.1C,00002195
2016-04-12 20:51:07 r, 13.13m,0000000497Hz,0000000000c,0000000.000s, 023.8C,00002195
2016-04-12 21:01:08 r, 14.69m,0000000118Hz,0000003917c,0000000.009s, 023.5C,00002195
2016-04-12 21:11:07 r, 15.76m,0000000044Hz,0000010544c,0000000.023s, 023.5C,00002195
2016-04-12 21:21:07 r, 16.27m,0000000027Hz,0000016826c,0000000.037s, 023.2C,00002195
2016-04-12 21:31:08 r, 15.67m,0000000048Hz,0000009650c,0000000.021s, 023.2C,00002195
2016-04-12 21:41:07 r, 15.77m,0000000043Hz,0000010669c,0000000.023s, 022.8C,00002195
2016-04-12 21:51:07 r, 16.64m,0000000019Hz,0000023646c,0000000.051s, 023.2C,00002195
2016-04-12 22:01:07 r, 16.63m,0000000020Hz,0000023415c,0000000.051s, 022.8C,00002195
2016-04-12 22:11:07 r, 17.34m,0000000011Hz,0000044853c,0000000.097s, 022.8C,00002195
2016-04-12 22:21:07 r, 17.27m,0000000012Hz,0000041999c,0000000.091s, 022.5C,00002195
2016-04-12 22:31:09 r, 18.11m,0000000005Hz,0000091127c,0000000.198s, 022.2C,00002195
2016-04-12 22:41:07 r, 18.19m,0000000005Hz,0000097752c,0000000.212s, 021.5C,00002195
2016-04-12 22:51:07 r, 18.11m,0000000005Hz,0000090360c,0000000.196s, 021.2C,00002195
2016-04-12 23:01:08 r, 17.83m,0000000007Hz,0000070875c,0000000.154s, 020.9C,00002195
2016-04-12 23:11:08 r, 17.68m,0000000007Hz,0000061372c,0000000.133s, 020.6C,00002195
2016-04-12 23:21:07 r, 16.78m,0000000017Hz,0000026898c,0000000.058s, 020.6C,00002195
2016-04-12 23:31:08 r, 16.32m,0000000026Hz,0000017562c,0000000.038s, 020.6C,00002195
2016-04-12 23:41:09 r, 16.48m,0000000023Hz,0000020438c,0000000.044s, 020.6C,00002195
2016-04-12 23:51:07 r, 16.33m,0000000025Hz,0000017703c,0000000.038s, 020.3C,00002195
